Der Flugplatz Krefeld-Egelsberg
  • ICAO-Code: EDLK
  • Koordinaten: N 51° 23,10'    E 06° 35,26'
  • Höhe ü. NN: 141 ft / 43 m
  • Platzfrequenz: 120.675 MHz - Krefeld Info
  • Landebahn: 06 - 24
  • Abmessungen: 640 x 30m
  • Belag: Gras
  • Tragfähigkeit: 2000 kg MTW; HEL 5700 kg MTW
  • Tankstelle: Nein
  • Betriebszeit: PPR
  • PPR-Request: Tel: 02151/ 560133, 368400
  • Landegebühr: Private Flüge 5 €, für gewerbliche Flüge wird eine gesonderte Gebühr erhoben

 


EDLK

Wetterinformation

[Quelle: ADDS]
METAR
EDDL 152350Z 16013KT 120V180 CAVOK 00/M06 Q1014 NOSIG =
EDDL 152300Z 1600/1706 15020G30KT 9999 BKN030 BECMG 1600/1602 15015G25KT TEMPO 1602/1607 1500 SN BKN005 PROB30 TEMPO 1603/1606 -FZRA TEMPO 1607/1612 3000 -SNRA BR BKN007 BECMG 1612/1615 17010KT BKN010 TEMPO 1615/1618 BKN008 BECMG 1618/1621 BKN015
TAF
EDDL 152300Z 1600/1706 15020G30KT 9999 BKN030 BECMG 1600/1602 15015G25KT TEMPO 1602/1607 1500 SN BKN005 PROB30 TEMPO 1603/1606 -FZRA TEMPO 1607/1612 3000 -SNRA BR BKN007 BECMG 1612/1615 17010KT BKN010 TEMPO 1615/1618 BKN008 BECMG 1618/1621 BKN015 =
Lade Webcam-Bild
Cookies erleichtern die Bereitstellung unserer Dienste. Mit der Nutzung unserer Dienste erklären Sie sich damit einverstanden, dass wir Cookies verwenden.